Theta_e
349 350 345 343 345 344 344 344 342 338 335 336 340 346 345 344 347 347 342 342 344 345 347 352 353 354 353 354 351 351 351 350 351 351 351 349 342 343 347 348 345 347 348
350 351 345 345 344 345 343 342 342 342 338 339 343 344 344 343 343 341 344 346 349 348 351 353 353 353 351 352 353 352 352 352 348 347 348 346 350 350 349 349 346 346 349
350 351 351 346 344 344 346 344 345 344 343 345 343 345 346 346 346 338 342 350 352 353 354 353 353 353 350 350 350 350 350 350 354 349 346 349 345 351 350 350 351 348 346
350 351 352 347 343 346 345 347 348 350 346 344 342 345 347 350 348 345 347 352 353 353 353 353 353 352 352 352 349 351 350 348 349 344 345 350 351 347 348 349 349 344 347
351 351 352 350 347 350 350 347 347 349 349 347 346 347 350 352 352 352 350 352 353 351 350 352 351 351 351 349 349 351 350 343 342 346 349 348 347 349 346 340 343 337 349
351 350 351 349 351 351 351 352 352 350 351 351 350 349 349 347 351 351 352 352 352 352 352 350 350 349 349 349 351 346 349 341 341 347 349 346 347 346 347 344 339 336 338
350 350 351 350 350 350 350 352 350 352 352 351 351 348 349 348 349 350 349 351 351 349 350 345 344 345 346 343 340 343 349 349 343 339 342 346 347 345 347 347 343 334 333
350 349 350 350 350 349 350 351 352 352 352 351 351 350 350 351 353 352 351 350 350 347 346 347 346 340 340 346 341 342 345 349 342 339 338 341 342 340 348 347 343 336 334
351 350 349 349 351 351 350 350 351 351 352 351 351 350 350 352 352 351 351 351 351 350 347 349 345 344 342 344 345 341 342 346 347 342 338 338 334 337 347 348 348 341 336
351 355 353 350 349 349 348 351 351 350 351 351 351 352 352 348 352 350 350 346 348 351 350 349 347 344 346 343 342 346 343 343 346 345 342 339 332 333 348 348 348 348 348
351 351 355 353 350 350 349 349 350 351 351 351 351 347 347 349 350 351 348 347 345 349 351 349 345 348 346 344 348 349 348 348 346 344 342 338 337 334 347 348 345 347 347
349 349 352 353 350 349 349 351 351 350 350 351 349 347 347 351 350 348 347 338 345 348 346 341 341 339 346 347 348 346 348 347 345 344 342 337 338 337 344 346 346 346 347
348 349 350 353 355 354 348 350 352 352 352 353 348 347 346 347 349 349 344 344 339 339 342 343 344 345 347 347 345 346 347 343 344 344 342 339 337 338 341 347 345 347 346
351 350 351 352 354 357 353 354 355 354 354 353 347 343 350 349 349 347 347 343 343 342 341 343 339 346 346 347 346 345 344 344 344 344 344 341 340 336 339 343 346 347 348
350 351 351 352 354 354 354 355 356 356 352 350 348 349 349 348 348 342 345 346 343 345 344 343 342 346 344 344 345 345 346 346 346 345 345 342 342 341 336 339 344 347 349
350 350 351 352 352 354 354 354 353 352 349 350 349 350 346 348 347 346 347 345 345 342 344 344 344 346 347 343 342 342 343 344 346 348 345 346 342 342 340 336 337 343 349
350 350 350 351 351 352 352 352 350 348 349 349 349 349 347 347 347 346 349 346 345 345 345 345 344 347 348 349 345 344 345 347 346 348 347 346 346 343 343 343 342 338 339
351 350 348 349 349 350 351 350 348 349 350 350 349 349 348 347 347 347 347 347 347 346 347 345 349 350 350 350 348 346 347 348 348 348 347 348 346 347 345 343 343 343 343
351 351 349 348 349 349 349 349 348 350 349 350 350 350 349 349 349 349 350 349 347 347 345 346 348 348 349 348 348 348 348 348 347 346 347 349 349 346 348 347 340 340 345
351 351 349 348 348 349 348 349 349 350 352 353 352 351 350 350 350 349 351 348 348 349 348 347 347 348 349 349 346 346 347 348 348 347 346 348 348 348 346 345 345 344 338
352 352 351 349 350 349 348 348 349 350 352 353 353 351 351 349 350 349 352 348 347 349 351 349 349 350 351 348 348 346 345 346 348 347 346 347 347 348 349 346 346 346 345
351 352 352 352 351 351 350 349 350 352 353 353 353 351 350 351 349 350 349 350 347 350 348 349 350 351 350 348 349 348 349 348 347 348 349 348 347 348 349 349 349 347 348
350 351 352 351 352 351 351 352 352 352 352 352 352 352 350 349 349 349 348 349 347 348 350 349 350 350 348 350 345 347 352 350 349 349 349 349 349 348 348 349 350 350 347
349 350 351 350 349 350 350 352 353 352 351 351 351 352 350 349 349 350 349 348 348 351 352 347 352 351 351 351 351 347 348 348 349 349 344 345 349 349 349 349 349 350 348
346 349 350 351 349 348 348 348 350 351 350 350 348 349 349 352 348 350 350 349 348 351 351 347 350 347 350 350 350 350 350 350 349 349 350 349 347 346 347 348 347 348 348
348 348 350 351 349 348 348 348 349 352 351 350 349 347 350 352 351 349 350 349 348 348 349 349 348 350 351 351 351 351 350 351 351 350 351 349 344 344 342 346 346 346 347
Wind_Speed
23 23 24 23 21 22 23 24 22 21 21 21 16 15 15 15 16 17 17 16 14 14 14 14 14 13 16 16 18 18 19 18 19 18 18 16 18 18 17 17 17 16 17
29 26 26 24 23 22 23 23 23 22 20 20 17 15 14 15 15 16 15 14 12 12 13 12 13 13 14 16 17 18 18 17 17 17 17 16 16 16 15 15 16 16 16
29 27 25 25 23 23 22 22 22 22 22 20 17 15 13 14 14 14 14 13 11 12 12 12 12 12 13 14 14 15 16 16 15 15 17 14 13 14 15 14 16 16 16
29 28 25 24 24 23 24 22 22 21 22 20 16 15 14 13 12 12 12 12 11 11 11 11 11 12 12 13 14 14 14 13 13 14 12 12 12 11 12 14 13 14 14
27 26 25 24 22 20 21 23 23 20 19 18 16 14 12 11 11 10 9 9 10 9 10 9 10 11 11 10 11 11 12 12 12 11 11 10 10 9 10 10 10 12 13
25 24 26 25 22 19 19 20 20 20 17 15 14 13 12 11 10 9 8 8 8 8 8 7 9 10 9 9 8 9 9 10 10 9 9 8 8 8 8 9 10 10 11
25 23 23 24 22 20 19 19 19 18 17 16 15 14 12 11 10 8 8 8 8 8 7 7 9 8 6 7 7 8 9 8 8 10 9 8 7 7 7 8 9 9 10
25 23 22 22 22 21 20 19 19 18 17 17 15 13 12 11 9 9 9 9 9 8 8 8 8 9 9 9 10 9 9 9 8 9 9 8 8 8 7 7 7 8 9
22 22 21 21 20 20 20 20 19 18 17 16 15 14 13 11 11 10 10 9 9 9 9 9 10 9 10 11 10 10 10 10 10 8 10 9 11 10 9 9 7 8 8
21 21 21 20 20 19 19 19 19 19 18 16 16 14 14 12 10 10 9 8 9 9 8 7 7 7 8 9 12 12 11 11 10 8 9 11 11 12 11 11 11 9 8
21 22 21 21 20 20 18 19 19 19 18 17 16 14 12 10 10 8 8 10 9 10 8 8 7 7 7 7 8 10 11 10 10 9 8 11 17 14 13 13 13 11 10
24 23 22 22 21 20 19 18 19 18 17 17 17 13 12 11 10 10 8 10 9 10 9 8 7 8 7 7 7 8 9 9 9 9 8 7 16 16 15 15 14 14 12
25 23 24 22 21 21 20 18 18 18 16 16 16 15 14 12 9 10 9 11 11 10 10 8 6 7 8 7 7 7 8 8 8 8 9 9 9 14 16 15 15 14 13
23 23 22 22 22 21 19 19 18 17 16 14 16 16 12 11 9 10 8 11 12 10 10 11 9 7 7 7 8 8 8 8 8 7 8 10 9 13 19 15 16 15 14
23 23 22 22 21 21 20 18 18 17 16 14 12 12 12 11 10 13 11 10 10 9 7 10 11 8 8 8 8 8 8 8 9 8 7 9 11 12 18 18 18 16 16
22 22 22 23 21 20 20 19 18 17 16 14 12 12 13 11 11 11 9 9 10 12 11 8 11 9 9 10 10 11 11 9 9 8 8 7 11 11 13 18 20 20 18
22 21 23 23 23 22 22 20 18 17 15 14 14 14 14 13 12 12 9 8 9 10 12 10 9 10 8 10 12 11 11 11 10 10 10 10 10 13 13 16 17 18 20
21 22 25 19 22 23 22 20 18 16 16 14 13 13 15 15 15 13 12 11 9 9 6 7 7 7 8 9 10 12 11 11 11 11 11 10 11 12 13 15 17 19 21
23 20 21 21 23 23 22 20 19 16 18 16 14 14 16 18 18 16 12 11 11 8 7 6 6 6 7 8 8 10 11 12 13 12 12 11 10 11 10 11 14 17 20
23 23 21 21 21 22 21 19 18 17 17 16 17 18 17 17 17 17 13 12 10 8 7 7 6 6 7 7 6 9 10 11 12 14 14 11 10 10 10 10 9 12 17
22 22 26 24 26 24 21 19 20 21 20 18 19 20 19 17 15 17 13 12 10 8 7 7 7 7 7 6 5 8 11 12 14 14 14 14 13 11 11 12 10 10 10
24 26 26 30 28 27 24 25 18 16 18 17 16 19 21 17 16 16 16 12 11 8 9 8 8 6 6 6 3 4 3 7 13 15 14 15 16 14 14 14 13 13 12
24 23 24 25 25 29 28 20 17 16 16 14 14 17 19 19 17 17 17 16 13 12 9 9 9 10 7 3 9 4 2 2 3 5 13 15 15 16 16 15 15 15 15
19 17 20 21 29 26 28 20 19 22 22 19 19 17 18 19 18 18 17 18 16 12 10 10 8 9 9 7 4 11 9 3 3 3 3 8 13 16 17 17 16 15 16
14 14 17 18 25 28 26 23 22 22 22 20 20 19 20 17 20 18 18 18 19 15 13 11 10 10 10 9 8 4 9 10 8 6 3 3 5 9 14 18 18 17 17
7 11 13 16 20 25 24 22 18 16 18 21 22 19 17 15 16 19 18 18 19 18 16 13 12 11 10 10 8 9 11 5 5 8 7 6 5 11 11 12 15 20 18
Wind_Direction
162 159 157 151 147 147 154 163 164 164 165 166 155 146 136 127 123 127 130 130 129 123 110 107 110 108 110 117 114 113 112 112 110 108 107 107 108 101 98 97 94 96 97
156 157 160 155 152 151 156 162 168 167 163 160 155 150 143 133 128 128 135 132 130 124 116 114 114 112 111 121 122 120 114 113 110 110 109 108 107 105 105 106 107 108 99
155 156 159 160 157 155 156 161 167 171 169 164 158 154 148 139 134 133 131 132 134 128 122 122 116 113 117 121 121 118 115 114 117 116 116 111 114 110 107 112 107 106 103
155 157 160 165 165 163 160 159 161 165 170 170 166 164 158 149 143 138 133 130 128 126 128 129 128 128 126 124 124 125 126 128 129 125 115 111 120 120 120 114 110 108 109
156 159 163 164 164 166 166 165 163 163 169 170 172 171 167 157 153 149 149 145 137 138 136 138 138 133 132 138 134 133 134 128 125 122 118 115 120 129 124 127 115 118 116
158 162 165 168 164 164 169 171 171 174 174 173 176 180 179 176 167 165 170 163 156 159 156 157 149 144 143 146 149 146 146 143 136 127 126 130 119 142 134 130 133 131 128
161 164 166 169 167 167 170 174 177 181 179 181 183 191 195 200 198 191 192 186 183 179 180 190 185 182 202 208 186 161 168 177 155 153 147 147 141 145 149 144 137 133 131
163 167 169 171 170 172 175 175 180 185 185 187 189 197 203 205 201 197 195 203 205 213 215 218 223 221 228 212 209 206 200 194 195 188 187 179 179 165 172 161 151 144 137
166 169 172 174 174 176 180 181 186 189 191 193 194 202 209 211 211 214 210 215 224 227 240 233 233 233 229 215 224 226 213 206 211 205 199 202 211 199 188 181 180 163 151
172 175 176 176 177 181 188 187 191 194 196 199 207 209 215 216 217 226 233 239 238 249 243 242 242 233 230 221 225 221 223 217 218 214 210 214 205 200 198 194 194 192 177
182 183 182 181 183 185 189 192 196 200 203 207 215 218 223 220 228 232 230 246 249 251 239 236 239 228 232 222 216 221 225 223 221 216 219 228 211 208 203 200 205 203 201
185 189 190 187 187 190 193 194 200 205 210 214 220 218 225 227 232 235 235 244 249 248 241 237 249 229 220 217 213 219 222 227 225 219 221 225 210 207 202 205 206 210 204
188 189 193 195 193 192 195 199 204 210 212 219 219 225 224 230 235 240 233 244 258 243 240 240 230 213 213 213 218 216 224 226 221 223 222 223 219 215 207 207 206 217 207
194 195 197 199 198 200 201 203 206 209 212 214 224 228 228 231 235 241 237 236 245 254 242 230 225 212 216 219 221 222 226 232 225 222 227 223 231 225 212 214 216 216 224
197 200 201 200 204 202 207 207 208 213 217 220 224 228 232 233 233 245 245 249 254 253 257 239 230 224 232 231 227 226 231 240 240 223 223 236 229 223 218 220 221 225 225
202 203 202 204 205 210 211 214 213 216 219 221 225 228 232 232 238 247 258 252 253 252 262 270 239 234 239 240 238 240 243 244 251 235 227 228 229 218 223 232 230 231 224
204 205 206 205 205 213 218 218 220 222 222 221 225 231 232 235 241 247 255 267 272 266 260 259 247 239 248 244 241 243 239 246 243 234 237 233 238 231 227 236 233 232 230
209 211 210 206 210 215 220 219 221 226 223 224 225 234 234 237 241 243 251 266 276 274 257 249 232 229 236 238 242 240 241 242 241 239 239 242 242 232 240 239 239 239 239
209 208 210 213 214 214 222 227 228 230 231 231 228 233 242 242 241 241 245 259 267 276 267 241 230 232 244 238 235 239 240 243 243 244 244 246 243 230 226 243 239 242 241
216 211 217 213 220 219 218 226 231 237 239 235 232 237 243 244 235 234 237 247 255 263 251 230 226 238 247 250 243 240 239 241 238 240 242 246 243 235 243 243 240 245 245
218 215 218 217 217 213 212 220 231 233 236 240 238 237 240 241 232 230 228 233 239 246 246 237 242 250 255 243 240 245 243 241 242 242 244 245 244 242 242 249 246 242 249
222 212 213 216 212 215 210 213 219 235 239 238 242 243 236 237 238 227 230 227 234 237 253 255 231 239 241 229 249 258 239 224 239 239 238 240 244 244 245 243 242 247 241
227 220 219 212 211 215 213 211 216 232 245 244 238 235 237 240 237 236 235 229 237 239 250 260 246 231 246 234 229 256 252 266 307 234 238 242 244 245 248 245 242 242 249
226 220 220 215 219 210 213 211 221 225 217 237 237 237 239 240 241 243 239 235 238 232 244 261 252 240 250 252 248 231 247 278 325 328 290 251 246 247 248 246 244 245 246
214 216 216 213 210 218 213 212 241 243 242 237 246 248 245 244 244 245 241 237 238 232 238 250 243 248 243 252 254 243 238 243 253 259 288 251 278 257 251 247 247 247 248
202 207 205 202 202 210 211 203 222 244 254 250 248 251 248 240 239 240 240 240 239 230 236 240 243 246 239 242 246 244 242 229 211 237 248 262 267 284 271 254 245 246 249